Location: Newark
(39.6867°N, 100.6772°W)
Time: 00:04:22
(UTC+00:00)

Transit 2A - Pass Details

Date: 22 October 2019
Orbit: 601 x 957 km, 66.7° (Epoch: 20 November)

Event Time Altitude Azimuth Distance (km) Brightness Sun altitude
Exits shadow 11:20:32 26° 208° (SSW) 1,190 6.7 -19.8°
Drops below altitude 10° 11:22:58 10° 183° (S) 1,969 8.1 -19.3°
Sets 11:25:24 0° 174° (S) 2,900 9.1 -18.9°
